Latest Weather Observations for Melbourne (Olympic Park)

IDV60801

Issued at 1:02 pm EST Wednesday 25 May 2016 (issued every 30 minutes, with the page automatically refreshed every 10 minutes)

About weather observations | Map of weather stations | Latest weather observations for VIC | Other Formats
Station Details ID: 086338 Name: MELBOURNE (OLYMPIC PARK) Lat: -37.83 Lon: 144.98 Height: 7.53 m
Data from the previous 72 hours. | See also: Recent months at Melbourne (Olympic Park)
Date/Time
EST
Temp
°C
App
Temp
°C
Dew
Point
Rel
Hum
%
Delta-T
°C
Wind Press
QNH
hPa
Press
MSL
hPa
Rain
since 9 am
mm
Dir
 
Spd
km/h
Gust
km/h
Spd
kts
Gust
kts
25/01:00pm 14.9 10.3 6.7 58 4.0 N 20 35 11 19 1011.4 1011.4 0.0
25/12:30pm 15.5 11.0 6.8 56 4.3 N 20 35 11 19 1011.9 1011.9 0.0
25/12:00pm 15.0 10.7 7.1 59 3.9 N 19 33 10 18 1012.1 1012.1 0.0
25/11:30am 14.9 10.7 8.2 64 3.4 N 20 35 11 19 1012.9 1012.9 0.0
25/11:00am 13.7 9.5 8.3 70 2.7 N 20 37 11 20 1013.8 1013.8 0.0
25/10:30am 13.2 9.2 8.3 72 2.4 NNE 19 30 10 16 1014.4 1014.4 0.0
25/10:00am 12.8 8.9 8.5 75 2.1 N 19 32 10 17 1014.6 1014.6 0.0
25/09:30am 12.6 9.0 8.3 75 2.1 N 17 26 9 14 1015.0 1015.0 0.0
25/09:00am 12.2 8.9 8.1 76 2.0 N 15 24 8 13 1015.1 1015.1 0.0
25/08:30am 11.9 7.7 7.6 75 2.1 N 19 32 10 17 1015.2 1015.2 0.0
25/08:00am 11.7 7.9 7.6 76 2.0 N 17 22 9 12 1015.1 1015.1 0.0
25/07:30am 10.6 7.8 6.9 78 1.7 N 11 15 6 8 1015.4 1015.4 0.0
25/07:00am 9.3 6.3 6.2 81 1.4 NNE 11 15 6 8 1015.5 1015.5 0.0
25/06:30am 9.1 6.1 6.0 81 1.4 NNE 11 17 6 9 1015.6 1015.6 0.0
25/06:00am 8.5 5.4 5.6 82 1.3 NNE 11 15 6 8 1015.3 1015.3 0.0
25/05:30am 8.1 4.6 5.4 83 1.2 NNE 13 19 7 10 1015.6 1015.6 0.0
25/05:00am 8.1 5.4 5.4 83 1.2 N 9 15 5 8 1015.8 1015.8 0.0
25/04:30am 7.8 4.2 5.1 83 1.2 NNE 13 15 7 8 1015.8 1015.8 0.0
25/04:00am 7.7 4.5 5.2 84 1.1 NNE 11 15 6 8 1016.1 1016.1 0.0
25/03:30am 7.7 4.5 5.2 84 1.1 NNE 11 15 6 8 1016.7 1016.7 0.0
25/03:00am 7.8 4.3 5.3 84 1.1 NNE 13 15 7 8 1016.9 1016.9 0.0
25/02:30am 7.6 4.8 5.2 85 1.1 NNE 9 13 5 7 1017.0 1017.0 0.0
25/02:00am 7.7 4.9 5.3 85 1.1 NNE 9 13 5 7 1017.3 1017.3 0.0
25/01:30am 7.8 5.6 5.4 85 1.1 NNE 6 11 3 6 1017.5 1017.5 0.0
25/01:00am 7.9 5.2 5.5 85 1.1 NNE 9 13 5 7 1017.8 1017.8 0.0
25/12:30am 7.9 5.8 5.7 86 1.0 NNE 6 9 3 5 1018.0 1018.0 0.0
25/12:00am 8.1 5.0 5.6 84 1.1 NE 11 13 6 7 1018.3 1018.3 0.0
 
Date/Time
EST
Temp
°C
App
Temp
°C
Dew
Point
Rel
Hum
%
Delta-T
°C
Wind Press
QNH
hPa
Press
MSL
hPa
Rain
since 9 am
mm
Dir
 
Spd
km/h
Gust
km/h
Spd
kts
Gust
kts
24/11:30pm 8.3 5.6 5.8 84 1.1 NNE 9 15 5 8 1018.3 1018.3 0.0
24/11:00pm 8.7 6.6 6.0 83 1.2 NNE 6 13 3 7 1018.6 1018.6 0.0
24/10:30pm 9.3 6.7 6.2 81 1.4 NE 9 17 5 9 1018.7 1018.7 0.0
24/10:00pm 9.8 7.2 6.3 79 1.6 NE 9 13 5 7 1019.0 1019.0 0.0
24/09:30pm 10.3 8.2 6.6 78 1.7 NNE 7 11 4 6 1019.6 1019.6 0.0
24/09:00pm 11.3 9.2 6.6 73 2.2 N 7 11 4 6 1019.9 1019.9 0.0
24/08:30pm 11.2 9.6 8.1 81 1.5 N 6 11 3 6 1019.8 1019.8 0.0
24/08:00pm 9.6 9.0 7.5 87 1.0 CALM 0 0 0 0 1019.9 1019.9 0.0
24/07:30pm 9.9 9.2 7.0 82 1.4 CALM 0 0 0 0 1019.8 1019.8 0.0
24/07:00pm 10.4 9.8 7.3 81 1.5 CALM 0 0 0 0 1019.7 1019.7 0.0
24/06:30pm 10.9 10.3 7.6 80 1.6 CALM 0 0 0 0 1019.6 1019.6 0.0
24/06:00pm 11.3 10.7 7.6 78 1.8 CALM 0 0 0 0 1019.5 1019.5 0.0
24/05:30pm 12.5 11.8 7.0 69 2.6 CALM 0 0 0 0 1019.2 1019.2 0.0
24/05:00pm 13.7 12.2 6.8 63 3.3 SW 4 7 2 4 1019.2 1019.2 0.0
24/04:30pm 14.4 11.9 6.5 59 3.8 SSW 9 15 5 8 1019.6 1019.6 0.0
24/04:00pm 14.5 11.9 6.3 58 3.9 SSW 9 19 5 10 1019.4 1019.4 0.0
24/03:30pm 15.6 13.1 6.6 55 4.4 SSW 9 15 5 8 1019.4 1019.4 0.0
24/03:00pm 15.7 13.7 7.2 57 4.2 SSW 7 13 4 7 1019.2 1019.2 0.0
24/02:30pm 15.0 12.1 6.3 56 4.2 SW 11 20 6 11 1019.2 1019.2 0.0
24/02:00pm 15.1 12.5 6.1 55 4.3 SSW 9 17 5 9 1019.5 1019.5 0.0
24/01:30pm 15.1 12.7 6.9 58 4.0 SSW 9 22 5 12 1019.6 1019.6 0.0
24/01:00pm 15.0 12.0 6.0 55 4.3 SW 11 20 6 11 1019.7 1019.7 0.0
24/12:30pm 15.2 12.7 6.7 57 4.1 SSW 9 19 5 10 1020.0 1020.0 0.0
24/12:00pm 15.2 12.0 6.7 57 4.1 WSW 13 22 7 12 1020.4 1020.4 0.0
24/11:30am 15.2 12.5 7.5 60 3.8 WSW 11 19 6 10 1020.8 1020.8 0.0
24/11:00am 15.2 12.7 8.2 63 3.5 WSW 11 19 6 10 1021.2 1021.2 0.0
24/10:30am 14.6 12.1 8.1 65 3.2 W 11 20 6 11 1021.1 1021.1 0.0
24/10:00am 14.2 11.7 8.4 68 2.9 W 11 20 6 11 1021.2 1021.2 0.0
24/09:54am 14.2 11.7 8.2 67 3.0 W 11 20 6 11 1022.1 - 0.0
24/09:30am 13.5 11.0 8.4 71 2.5 W 11 20 6 11 1021.2 1021.2 0.0
24/09:00am 12.6 10.8 8.1 74 2.2 WNW 7 13 4 7 1021.1 1021.1 1.8
24/08:30am 12.3 10.5 8.0 75 2.1 WNW 7 13 4 7 1021.0 1021.0 1.8
24/08:00am 11.8 9.3 8.1 78 1.8 WNW 11 19 6 10 1020.7 1020.7 1.8
24/07:30am 11.6 9.5 8.1 79 1.7 WNW 9 15 5 8 1020.4 1020.4 1.8
24/07:00am 11.6 9.5 8.1 79 1.7 WNW 9 17 5 9 1020.0 1020.0 1.8
24/06:30am 11.8 9.7 8.3 79 1.7 WNW 9 17 5 9 1019.8 1019.8 1.8
24/06:00am 11.6 10.1 8.3 80 1.6 WNW 6 17 3 9 1019.7 1019.7 1.8
24/05:30am 11.3 9.7 8.0 80 1.6 NW 6 11 3 6 1019.5 1019.5 1.8
24/05:00am 11.6 9.7 7.7 77 1.9 NW 7 11 4 6 1019.5 1019.5 1.8
24/04:30am 11.9 9.8 8.2 78 1.8 NW 9 15 5 8 1019.4 1019.4 1.8
24/04:00am 11.9 9.4 8.2 78 1.8 NW 11 17 6 9 1019.2 1019.2 1.8
24/03:30am 11.9 9.8 8.4 79 1.7 NW 9 15 5 8 1019.2 1019.2 1.8
24/03:00am 11.8 10.2 8.6 81 1.6 NW 7 11 4 6 1019.3 1019.3 1.8
24/02:30am 11.9 10.2 8.4 79 1.7 WNW 7 17 4 9 1019.2 1019.2 1.8
24/02:00am 11.6 10.1 8.6 82 1.5 NW 6 11 3 6 1019.1 1019.1 1.8
24/01:30am 11.1 9.0 8.3 83 1.4 NW 9 11 5 6 1019.2 1019.2 1.8
24/01:00am 11.0 9.3 8.4 84 1.3 NW 7 13 4 7 1019.3 1019.3 1.8
24/12:30am 11.0 9.3 8.4 84 1.3 NW 7 11 4 6 1019.4 1019.4 1.8
24/12:00am 11.3 9.3 8.7 84 1.3 NW 9 17 5 9 1019.5 1019.5 1.8
 
Date/Time
EST
Temp
°C
App
Temp
°C
Dew
Point
Rel
Hum
%
Delta-T
°C
Wind Press
QNH
hPa
Press
MSL
hPa
Rain
since 9 am
mm
Dir
 
Spd
km/h
Gust
km/h
Spd
kts
Gust
kts
23/11:30pm 11.2 10.3 9.3 88 1.0 NW 4 9 2 5 1019.7 1019.7 1.8
23/11:00pm 11.7 10.2 9.3 85 1.2 WNW 7 15 4 8 1019.5 1019.5 1.6
23/10:30pm 11.9 10.7 9.6 86 1.2 WNW 6 13 3 7 1019.6 1019.6 1.6
23/10:00pm 11.9 10.6 9.8 87 1.1 W 7 13 4 7 1019.6 1019.6 1.6
23/09:30pm 12.0 11.3 9.9 87 1.1 WNW 4 13 2 7 1019.5 1019.5 1.6
23/09:00pm 12.1 11.4 10.0 87 1.1 WNW 4 7 2 4 1019.4 1019.4 1.6
23/08:30pm 11.8 11.1 10.0 89 0.9 NW 4 9 2 5 1019.4 1019.4 1.6
23/08:00pm 11.8 11.1 10.2 90 0.8 SW 4 11 2 6 1019.3 1019.3 1.4
23/07:37pm 11.9 10.9 10.3 90 0.8 WNW 6 9 3 5 1020.1 - 1.2
23/07:30pm 11.9 10.8 10.1 89 0.9 SW 6 15 3 8 1019.3 1019.3 1.2
23/07:05pm 12.5 10.7 9.5 82 1.5 S 9 28 5 15 1019.9 - 0.6
23/07:00pm 12.7 10.5 9.2 79 1.8 SSW 11 28 6 15 1019.0 1019.0 0.2
23/06:30pm 13.6 12.2 7.2 65 3.1 W 4 11 2 6 1018.5 1018.5 0.0
23/06:00pm 13.3 11.9 7.3 67 2.9 WNW 4 9 2 5 1018.3 1018.3 0.0
23/05:30pm 13.0 11.1 7.5 69 2.7 W 7 11 4 6 1018.2 1018.2 0.0
23/05:00pm 13.1 11.3 7.8 70 2.6 WSW 7 17 4 9 1018.2 1018.2 0.0
23/04:30pm 13.4 10.5 8.0 70 2.7 SW 13 26 7 14 1018.1 1018.1 0.0
23/04:00pm 14.5 11.3 6.8 60 3.7 SW 13 33 7 18 1017.7 1017.7 0.0
23/03:30pm 16.0 11.9 2.4 40 6.1 W 13 30 7 16 1017.4 1017.4 0.0
23/03:00pm 16.9 12.1 2.5 38 6.5 W 17 28 9 15 1017.3 1017.3 0.0
23/02:30pm 16.3 11.8 2.3 39 6.3 WSW 15 39 8 21 1017.1 1017.1 0.0
23/02:00pm 16.3 11.5 2.7 40 6.1 W 17 41 9 22 1017.2 1017.2 0.0
23/01:30pm 16.4 11.8 3.5 42 5.9 W 17 32 9 17 1017.4 1017.4 0.0
23/01:00pm 15.9 11.4 4.0 45 5.5 WSW 17 35 9 19 1017.7 1017.7 0.0
23/12:30pm 15.8 11.2 3.6 44 5.6 W 17 35 9 19 1017.6 1017.6 0.0
23/12:00pm 15.4 11.7 4.2 47 5.2 W 13 24 7 13 1017.7 1017.7 0.0
23/11:30am 15.2 11.1 4.6 49 4.9 WSW 15 33 8 18 1018.1 1018.1 0.0
23/11:00am 14.2 10.7 5.6 56 4.1 W 13 28 7 15 1018.5 1018.5 0.0
23/10:30am 14.4 10.6 5.7 56 4.1 WNW 15 26 8 14 1017.9 1017.9 0.0
23/10:00am 14.1 10.8 6.2 59 3.8 WSW 13 20 7 11 1017.4 1017.4 0.0
23/09:30am 13.7 10.3 5.8 59 3.7 W 13 22 7 12 1017.3 1017.3 0.0
23/09:00am 13.2 9.0 5.9 61 3.4 WNW 17 30 9 16 1016.9 1016.9 2.2
23/08:30am 12.9 9.5 6.0 63 3.3 W 13 26 7 14 1016.4 1016.4 2.2
23/08:00am 13.0 9.3 6.1 63 3.3 WNW 15 32 8 17 1015.9 1015.9 2.2
23/07:30am 13.2 8.7 5.9 61 3.4 NW 19 33 10 18 1015.0 1015.0 2.2
23/07:00am 13.7 9.5 5.6 58 3.8 WNW 17 39 9 21 1014.5 1014.5 2.2
23/06:30am 14.1 11.2 6.7 61 3.6 NW 11 22 6 12 1013.7 1013.7 2.2
23/06:00am 14.5 12.7 8.0 65 3.2 NW 7 17 4 9 1013.3 1013.3 2.2
23/05:30am 14.8 13.0 7.8 63 3.5 WNW 7 13 4 7 1012.8 1012.8 2.2
23/05:00am 15.2 12.3 8.0 62 3.6 WNW 13 26 7 14 1012.5 1012.5 2.2
23/04:30am 15.1 12.6 8.1 63 3.5 NW 11 20 6 11 1011.9 1011.9 2.2
23/04:00am 15.2 12.3 8.0 62 3.6 NW 13 26 7 14 1011.5 1011.5 2.2
23/03:30am 15.1 13.1 8.6 65 3.3 NNW 9 17 5 9 1011.3 1011.3 2.2
23/03:00am 15.4 13.0 8.6 64 3.5 WNW 11 26 6 14 1010.5 1010.5 2.2
23/02:36am 15.5 13.3 9.4 67 3.1 WNW 11 20 6 11 1011.6 - 2.2
23/02:30am 15.2 12.4 10.0 71 2.7 NW 15 32 8 17 1011.2 1011.2 2.2
23/02:11am 16.9 15.5 12.2 74 2.6 WNW 11 28 6 15 1012.1 - 1.0
23/02:00am 18.3 16.7 12.7 70 3.1 NW 13 26 7 14 1010.2 1010.2 0.0
23/01:30am 18.3 17.3 12.3 68 3.3 NW 9 15 5 8 1010.2 1010.2 0.0
23/01:00am 19.6 16.6 10.6 56 4.9 NNW 17 32 9 17 1009.9 1009.9 0.0
23/12:30am 19.5 16.4 10.2 55 5.0 NNW 17 30 9 16 1010.0 1010.0 0.0
23/12:00am 19.7 17.3 10.1 54 5.2 N 13 22 7 12 1010.0 1010.0 0.0
 
Date/Time
EST
Temp
°C
App
Temp
°C
Dew
Point
Rel
Hum
%
Delta-T
°C
Wind Press
QNH
hPa
Press
MSL
hPa
Rain
since 9 am
mm
Dir
 
Spd
km/h
Gust
km/h
Spd
kts
Gust
kts
22/11:30pm 20.8 16.2 9.7 49 5.9 N 24 39 13 21 1009.7 1009.7 0.0
22/11:04pm 21.6 16.2 9.5 46 6.5 N 28 46 15 25 1009.7 1009.7 0.0
22/11:00pm 21.8 17.1 9.3 45 6.7 N 24 46 13 25 1009.8 1009.8 0.0
22/10:30pm 21.3 17.9 9.2 46 6.4 N 17 22 9 12 1010.2 1010.2 0.0
22/10:00pm 21.7 17.3 8.9 44 6.8 N 22 35 12 19 1010.1 1010.1 0.0
22/09:30pm 21.6 17.5 8.8 44 6.8 N 20 35 11 19 1010.3 1010.3 0.0
22/09:00pm 21.8 17.7 8.7 43 6.9 N 20 35 11 19 1010.8 1010.8 0.0
22/08:30pm 21.6 18.1 8.8 44 6.8 N 17 30 9 16 1011.0 1011.0 0.0
22/08:00pm 21.8 18.3 8.7 43 6.9 N 17 33 9 18 1011.0 1011.0 0.0
22/07:30pm 21.1 17.7 9.0 46 6.4 N 17 32 9 17 1011.3 1011.3 0.0
22/07:00pm 20.8 16.8 9.1 47 6.2 N 20 37 11 20 1011.3 1011.3 0.0
22/06:30pm 20.9 17.0 9.5 48 6.1 N 20 33 11 18 1011.6 1011.6 0.0
22/06:00pm 20.6 18.1 9.8 50 5.8 N 13 24 7 13 1012.0 1012.0 0.0
22/05:30pm 20.9 17.0 9.5 48 6.1 N 20 37 11 20 1011.5 1011.5 0.0
22/05:00pm 21.3 16.6 9.2 46 6.4 N 24 41 13 22 1011.6 1011.6 0.0
22/04:30pm 21.6 17.5 8.8 44 6.8 N 20 35 11 19 1012.0 1012.0 0.0
22/04:00pm 22.0 17.9 8.5 42 7.1 N 20 35 11 19 1012.1 1012.1 0.0
22/03:30pm 22.1 17.7 8.9 43 7.0 N 22 33 12 18 1011.8 1011.8 0.0
22/03:00pm 21.9 17.2 9.1 44 6.8 N 24 43 13 23 1011.9 1011.9 0.0
22/02:30pm 21.3 16.8 9.9 48 6.1 N 24 41 13 22 1012.5 1012.5 0.0
22/02:00pm 20.7 16.6 10.2 51 5.7 N 22 35 12 19 1013.0 1013.0 0.0
22/01:30pm 20.8 16.7 10.0 50 5.8 N 22 39 12 21 1013.0 1013.0 0.0

Other Formats:

Comma delimited format used in spreadsheet applications
http://www.bom.gov.au/fwo/IDV60801/IDV60801.95936.axf

JavaScript Object Notation format (JSON) in row-major order
http://www.bom.gov.au/fwo/IDV60801/IDV60801.95936.json